Durant, OK

11:24 PM CST on December 07, 2019 (GMT -0600)
Eaker

Weather History for KDUA - October, 2019

Change the Weather History Date:

Friday, October 25, 2019

  Actual Average (KMLC) Record (KMLC)
Temperature  
Mean Temperature 52 °F -  
Max Temperature 55 °F 70 °F 88 °F (2014)
Min Temperature 50 °F 47 °F 28 °F (2005)
Degree Days  
Heating Degree Days 12    
Growing Degree Days 2 (Base 50)    
Moisture  
Dew Point 51 °F    
Average Humidity 93    
Maximum Humidity 100    
Minimum Humidity 88    
Precipitation  
Precipitation 0.00 in - - ()
Sea Level Pressure  
Sea Level Pressure 30.08 in    
Wind  
Wind Speed 9 mph (North)    
Max Wind Speed 16 mph    
Max Gust Speed 20 mph    
Visibility 8 miles    
Events Rain    
Averages and records for this station are not official NWS values.
T = Trace of Precipitation, MM = Missing Value Source: NWS Daily Summary

Daily Weather History Graph

Daily Weather History Graph

Search for Another Location

Airport or City:

Astronomy

Oct. 25, 2019 Rise Set
Actual Time 7:38 AM CDT 6:40 PM CDT
Civil Twilight 7:13 AM CDT 7:05 PM CDT
Nautical Twilight 6:43 AM CDT 7:34 PM CDT
Astronomical Twilight 6:14 AM CDT 8:03 PM CDT
Moon 4:35 AM CDT (10/25) 5:31 PM CDT (10/25)
Length of Visible Light 11h 52m
Length of Day
11h 01m
Waning Crescent, 9% of the Moon is Illuminated
Oct 25
Waning Crescent
Oct 27
New
Nov 4
First Quarter
Nov 12
Full
Nov 19
Last Quarter

Hourly Weather History & Observations

Time (CDT) Temp. Dew Point Humidity Pressure Visibility Wind Dir Wind Speed Gust Speed Precip Events Conditions
12:36 AM 53.6 °F 51.8 °F 94% 30.11 in 10.0 mi North 9.2 mph - N/A Rain Light Rain
12:57 AM 53.6 °F 51.8 °F 94% 30.11 in 10.0 mi North 9.2 mph - N/A   Light Drizzle
1:17 AM 53.6 °F 51.8 °F 94% 30.11 in 10.0 mi NNE 6.9 mph - N/A   Overcast
1:56 AM 53.6 °F 51.8 °F 94% 30.10 in 10.0 mi NNE 8.1 mph - N/A   Overcast
2:16 AM 53.6 °F 51.8 °F 94% 30.10 in 10.0 mi NNE 6.9 mph - N/A   Overcast
2:38 AM 53.6 °F 53.6 °F 100% 30.09 in 10.0 mi NNE 6.9 mph - N/A   Overcast
2:56 AM 55.4 °F 53.6 °F 94% 30.09 in 10.0 mi ENE 8.1 mph - N/A   Overcast
3:18 AM 55.4 °F 53.6 °F 94% 30.09 in 10.0 mi North 5.8 mph - N/A   Overcast
3:36 AM 55.4 °F 53.6 °F 94% 30.09 in 10.0 mi NNW 5.8 mph - N/A   Overcast
3:58 AM 55.4 °F 53.6 °F 94% 30.08 in 10.0 mi NW 4.6 mph - N/A   Overcast
4:36 AM 55.4 °F 53.6 °F 94% 30.08 in 10.0 mi NNE 5.8 mph - N/A   Overcast
4:56 AM 55.4 °F 53.6 °F 94% 30.08 in 10.0 mi North 8.1 mph - N/A   Overcast
5:17 AM 53.6 °F 51.8 °F 94% 30.06 in 10.0 mi NNE 9.2 mph - N/A   Overcast
5:37 AM 53.6 °F 51.8 °F 94% 30.06 in 10.0 mi NNE 9.2 mph - N/A   Overcast
5:59 AM 53.6 °F 51.8 °F 94% 30.07 in 10.0 mi NNE 10.4 mph - N/A   Overcast
6:16 AM 53.6 °F 51.8 °F 94% 30.07 in 5.0 mi North 10.4 mph - N/A Rain Rain
6:36 AM 53.6 °F 51.8 °F 94% 30.07 in 4.0 mi NNE 11.5 mph - N/A   Drizzle
6:56 AM 53.6 °F 51.8 °F 94% 30.08 in 3.0 mi NNE 13.8 mph - N/A   Drizzle
7:58 AM 53.6 °F 51.8 °F 94% 30.09 in 10.0 mi North 8.1 mph - N/A   Drizzle
8:16 AM 53.6 °F 51.8 °F 94% 30.09 in 5.0 mi NW 12.7 mph - N/A   Drizzle
8:38 AM 51.8 °F 50.0 °F 94% 30.11 in 5.0 mi NW 9.2 mph - N/A   Drizzle
8:58 AM 51.8 °F 50.0 °F 94% 30.12 in 5.0 mi North 9.2 mph - N/A   Drizzle
9:16 AM 51.8 °F 50.0 °F 94% 30.12 in 7.0 mi NNE 8.1 mph - N/A   Drizzle
9:36 AM 51.8 °F 50.0 °F 94% 30.12 in 10.0 mi NNW 8.1 mph - N/A   Drizzle
9:58 AM 51.8 °F 50.0 °F 94% 30.13 in 10.0 mi Calm Calm - N/A Rain Light Rain
10:38 AM 53.6 °F 51.8 °F 94% 30.13 in 10.0 mi NNW 8.1 mph - N/A Rain Rain
11:18 AM 51.8 °F 50.0 °F 94% 30.13 in 7.0 mi NW 9.2 mph - N/A   Drizzle
11:36 AM 51.8 °F 50.0 °F 94% 30.13 in 4.0 mi North 9.2 mph - N/A Rain Light Rain
11:56 AM 53.6 °F 51.8 °F 94% 30.13 in 5.0 mi North 11.5 mph - N/A Rain Light Rain
12:37 PM 53.6 °F 51.8 °F 94% 30.12 in 5.0 mi North 10.4 mph - N/A Rain Heavy Rain
12:57 PM 53.6 °F 51.8 °F 94% 30.11 in 10.0 mi NW 10.4 mph - N/A Rain Light Rain
1:17 PM 53.6 °F 51.8 °F 94% 30.10 in 7.0 mi NW 10.4 mph - N/A Rain Rain
1:38 PM 53.6 °F 51.8 °F 94% 30.09 in 7.0 mi NNW 8.1 mph - N/A   Drizzle
2:17 PM 53.6 °F 51.8 °F 94% 30.06 in 5.0 mi North 16.1 mph 19.6 mph N/A Rain Light Rain
2:37 PM 53.6 °F 51.8 °F 94% 30.05 in 5.0 mi North 12.7 mph - N/A   Drizzle
2:57 PM 53.6 °F 50.0 °F 88% 30.05 in 7.0 mi North 13.8 mph - N/A Rain Rain
3:37 PM 51.8 °F 50.0 °F 94% 30.05 in 7.0 mi NNW 10.4 mph - N/A Rain Rain
4:37 PM 53.6 °F 50.0 °F 88% 30.05 in 10.0 mi North 8.1 mph - N/A   Drizzle
5:57 PM 53.6 °F 50.0 °F 88% 30.04 in 10.0 mi North 8.1 mph - N/A Rain Rain
6:17 PM 51.8 °F 50.0 °F 94% 30.05 in 4.0 mi NNW 9.2 mph - N/A Rain Heavy Rain
6:38 PM 51.8 °F 50.0 °F 94% 30.05 in 4.0 mi NNW 8.1 mph - N/A Rain Rain
6:57 PM 51.8 °F 50.0 °F 94% 30.05 in 7.0 mi NNW 9.2 mph - N/A Rain Heavy Rain
7:37 PM 51.8 °F 48.2 °F 88% 30.06 in 5.0 mi NNW 9.2 mph - N/A Rain Rain
8:17 PM 51.8 °F 48.2 °F 88% 30.07 in 5.0 mi NNW 10.4 mph - N/A Rain Rain
8:39 PM 51.8 °F 48.2 °F 88% 30.06 in 7.0 mi NNW 11.5 mph 16.1 mph N/A Rain Rain
8:57 PM 50.0 °F 48.2 °F 94% 30.05 in 7.0 mi NNW 9.2 mph 18.4 mph N/A Rain Light Rain
9:17 PM 50.0 °F 48.2 °F 94% 30.05 in 7.0 mi NNW 11.5 mph - N/A Rain Rain
9:37 PM 50.0 °F 48.2 °F 94% 30.05 in 10.0 mi NNW 11.5 mph 18.4 mph N/A   Light Drizzle
9:57 PM 50.0 °F 48.2 °F 94% 30.04 in 10.0 mi NNW 12.7 mph - N/A   Light Drizzle
10:17 PM 50.0 °F 48.2 °F 94% 30.05 in 10.0 mi NW 9.2 mph - N/A Rain Rain
10:37 PM 50.0 °F 48.2 °F 94% 30.04 in 7.0 mi NNW 10.4 mph - N/A Rain Light Rain
10:57 PM 50.0 °F 48.2 °F 94% 30.04 in 7.0 mi NNW 9.2 mph - N/A Rain Rain
11:38 PM 50.0 °F 48.2 °F 94% 30.01 in 5.0 mi NNW 9.2 mph - N/A Rain Rain
11:56 PM 50.0 °F 48.2 °F 94% 30.01 in 7.0 mi NNW 9.2 mph - N/A Rain Light Rain